Startpagina
METAR-TAF:

METAR-TAF

Vliegvelden :

Machala, Ecuador

breedte: 03-26-07S, lengte: 079-58-40W, hoogte: 52 m

Actueel weer

Dit bericht is 39 minuten geleden gemaakt, om 13:00 UTC
Wind 2 kt uit het noorden
Temperatuur 22°C
Vochtigheid 94%
Druk 1014 hPa
Zicht 10 km of meer
Weinig wolken op 1000 ft
Geheel bewolkt op 2000 ft

METAR: SERO 231300Z 35002KT 9999 FEW010 OVC020 22/21 Q1014

Tijdstip: 08:39 (13:39 UTC)


TAF: ontbreekt

Waarnemingen en weersverwachtingen van meer dan 4000 vliegvelden (METAR en TAF).

De beschikbare stations zijn de gele en rode punten op de kaart.

Ga met uw muis naar het station om de naam te zien.

Klik dan om waarnemingen en weersverwachtingen te zien.

kaart wijzigen: klik op de groene knoppen met een zwart kruis om in te zoomen, op de groene knop met een streepje om uit te zoomen of op de groene pijlen voor aangrenzende kaarten.


METAR-TAF: